Home > Time Zones > World Clock > Weather > Japan > Kobe > Past weeks

Flag for Japan Weather past 2 weeks in Kobe, Japan

Now
72 °F

Passing clouds.


Feels Like: 77 °F
Forecast: 54 / 74 °F
Wind: 3 mph from Southwest

Location: Osaka International Airport

Current Time: Oct 24, 2014 at 4:25:07 PM

Latest Report: Oct 24, 2014 at 4:00 PM


Visibility: N/A

Pressure: 30.09 "Hg

Humidity: 44%

Dew point: 48 °F

Location of KobeLocation

Historic Weather in Kobe — Graph

°F

Kobe temperature yesterday

Maximum temperature yesterday: 70 °F (at 2:00 PM)
Minimum temperature yesterday: 55 °F (at 6:00 AM)
Average temperature yesterday: 63 °F

Past Weeks' High & Low Weather Summary

 TemperatureHumidityPressure
High81 °F (Oct 10, 3:00 PM)100% (Oct 20, 7:00 PM)30.30 "Hg (Oct 20, 7:00 PM)
Low48 °F (Oct 18, 5:00 AM)24% (Oct 19, 3:00 PM)29.12 "Hg (Oct 13, 6:47 PM)
Average67 °F65%30.02 "Hg
* Reported Oct 9 3:00 PM — Oct 24 3:00 PM, Kobe, Weather by CustomWeather, © 2014

Note: Actual official high and low records may vary slightly from our data, if they occured in-between our weather recording intervals... More about our weather records

Advertising

Kobe weather history for previous 24 hours

 ConditionsComfort  
Time TempWeatherWind HumidityBarometerVisibility
3:00 PM
Oct 24
72 °FPassing clouds.5 mph44%30.09 "HgN/A
2:00 PM70 °FPassing clouds.2 mph43%30.09 "HgN/A
1:00 PM70 °FPassing clouds.2 mph43%30.12 "HgN/A
12:00 PM68 °FPassing clouds.2 mph46%30.12 "HgN/A
11:00 AM66 °FPassing clouds.3 mph52%30.15 "HgN/A
10:00 AM63 °FPassing clouds.2 mph59%30.18 "HgN/A
9:00 AM59 °FPassing clouds.2 mph68%30.18 "HgN/A
8:00 AM55 °FPassing clouds.3 mph72%30.18 "HgN/A
7:00 AM52 °FPassing clouds.5 mph82%30.15 "HgN/A
6:00 AM48 °FClear.5 mph94%30.15 "Hg10 mi
5:00 AM50 °FClear.3 mph88%30.12 "Hg10 mi
8:00 PM
Oct 23
57 °FPassing clouds.5 mph72%30.09 "HgN/A
7:00 PM59 °FPassing clouds.7 mph63%30.07 "HgN/A
6:00 PM61 °FPassing clouds.9 mph59%30.07 "HgN/A
5:00 PM63 °FPassing clouds.12 mph56%30.07 "HgN/A
4:00 PM66 °FPassing clouds.15 mph49%30.04 "HgN/A
Weather by CustomWeather, © 2014

See weather overviewHow to use our weather pages